SBI005 ULLI-ULAA

Flight info

Callsign SBI005
Flight time 1h 13m
Altitude 35000
Route PETAP1D PETAP T821 MAKOG MAKOG4G
Aircraft A320/M-SDE3FGHIRWY/LB1

Departure

Time 2026-05-07 13:52
Airport Pulkovo Airport (ULLI)

Arrival

Time 2026-05-07 15:05
Airport Talagi Airport (ULAA)
Time Latitude Longitude Altitude Speed Heading
2026-05-07 12:29 59.80154 30.26496 88 ft 0 kts 287°
2026-05-07 13:43 59.80156 30.26482 87 ft 2 kts 287°
2026-05-07 13:43 59.80163 30.26436 86 ft 3 kts 287°
2026-05-07 13:43 59.80173 30.26392 82 ft 5 kts 311°
2026-05-07 13:43 59.80214 30.26393 84 ft 8 kts 15°
2026-05-07 13:44 59.80281 30.26431 85 ft 12 kts 16°
2026-05-07 13:44 59.80365 30.26456 83 ft 11 kts
2026-05-07 13:44 59.80422 30.26484 83 ft 7 kts 10°
2026-05-07 13:44 59.80457 30.26440 84 ft 6 kts 300°
2026-05-07 13:45 59.80471 30.26365 83 ft 5 kts 288°
2026-05-07 13:45 59.80479 30.26311 85 ft 4 kts 286°
2026-05-07 13:45 59.80486 30.26263 82 ft 4 kts 286°
2026-05-07 13:45 59.80493 30.26218 87 ft 3 kts 286°
2026-05-07 13:46 59.80499 30.26173 84 ft 3 kts 286°
2026-05-07 13:46 59.80506 30.26130 86 ft 4 kts 286°
2026-05-07 13:46 59.80518 30.26047 82 ft 10 kts 287°
2026-05-07 13:46 59.80546 30.25862 76 ft 18 kts 287°
2026-05-07 13:47 59.80583 30.25614 71 ft 15 kts 287°
2026-05-07 13:47 59.80599 30.25509 75 ft 0 kts 287°
2026-05-07 13:47 59.80600 30.25502 75 ft 3 kts 287°
2026-05-07 13:48 59.80611 30.25428 72 ft 9 kts 287°
2026-05-07 13:48 59.80632 30.25287 72 ft 10 kts 286°
2026-05-07 13:48 59.80652 30.25152 71 ft 10 kts 287°
2026-05-07 13:48 59.80672 30.25024 70 ft 9 kts 287°
2026-05-07 13:49 59.80690 30.24903 69 ft 9 kts 286°
2026-05-07 13:49 59.80707 30.24787 67 ft 9 kts 286°
2026-05-07 13:49 59.80726 30.24677 68 ft 8 kts 295°
2026-05-07 13:49 59.80773 30.24613 71 ft 10 kts 343°
2026-05-07 13:50 59.80857 30.24571 69 ft 13 kts 346°
2026-05-07 13:50 59.80945 30.24560 68 ft 12 kts 21°
2026-05-07 13:50 59.80953 30.24692 65 ft 0 kts 106°
2026-05-07 13:51 59.80945 30.24749 65 ft 27 kts 106°
2026-05-07 13:51 59.80819 30.25585 70 ft 96 kts 106°
2026-05-07 13:51 59.80575 30.27207 86 ft 147 kts 107°
2026-05-07 13:51 59.80263 30.29338 436 ft 163 kts 105°
2026-05-07 13:52 59.79934 30.31498 1179 ft 164 kts 104°
2026-05-07 13:52 59.79594 30.33667 1903 ft 165 kts 105°
2026-05-07 13:52 59.79258 30.35859 2594 ft 167 kts 104°
2026-05-07 13:52 59.78929 30.38077 3245 ft 167 kts 103°
2026-05-07 13:53 59.78591 30.40384 3641 ft 184 kts 103°
2026-05-07 13:53 59.78212 30.42977 3913 ft 208 kts 104°
2026-05-07 13:53 59.77788 30.45863 4439 ft 224 kts 104°
2026-05-07 13:53 59.77343 30.48858 5264 ft 228 kts 105°
2026-05-07 13:54 59.76936 30.51912 6120 ft 230 kts 95°
2026-05-07 13:54 59.77126 30.55046 6923 ft 234 kts 68°
2026-05-07 13:54 59.78076 30.57666 7694 ft 240 kts 39°
2026-05-07 13:54 59.79585 30.59130 8471 ft 246 kts 17°
2026-05-07 13:55 59.81240 30.60113 9296 ft 250 kts 16°
2026-05-07 13:55 59.82934 30.60911 10089 ft 253 kts
2026-05-07 13:55 59.84654 30.60277 10791 ft 254 kts 332°
2026-05-07 13:55 59.86040 30.58058 11251 ft 266 kts 303°
2026-05-07 13:56 59.86759 30.54631 11873 ft 272 kts 285°
2026-05-07 13:56 59.87287 30.50998 12651 ft 275 kts 285°
2026-05-07 13:56 59.87604 30.47243 13421 ft 276 kts 271°
2026-05-07 13:56 59.87452 30.43504 14218 ft 275 kts 259°
2026-05-07 13:57 59.87099 30.39775 14971 ft 274 kts 259°
2026-05-07 13:57 59.86862 30.37262 15484 ft 273 kts 259°
2026-05-07 13:57 59.86402 30.32332 16443 ft 275 kts 259°
2026-05-07 13:57 59.86051 30.28556 17041 ft 282 kts 259°
2026-05-07 13:58 59.85677 30.24578 17234 ft 300 kts 259°
2026-05-07 13:58 59.85428 30.21849 17547 ft 305 kts 262°
2026-05-07 13:58 59.85505 30.17616 18191 ft 311 kts 281°
2026-05-07 13:58 59.86404 30.13658 18773 ft 322 kts 300°
2026-05-07 13:59 59.88092 30.10464 18922 ft 353 kts 324°
2026-05-07 13:59 59.90450 30.08577 19055 ft 377 kts 335°
2026-05-07 13:59 59.92978 30.06948 19393 ft 385 kts 336°
2026-05-07 13:59 59.95544 30.05331 19854 ft 389 kts 336°
2026-05-07 14:00 59.98142 30.03697 20326 ft 393 kts 335°
2026-05-07 14:00 60.00755 30.02039 20836 ft 396 kts 335°
2026-05-07 14:00 60.03385 30.00343 21327 ft 399 kts 335°
2026-05-07 14:00 60.06033 29.98611 21787 ft 402 kts 334°
2026-05-07 14:01 60.08703 29.96855 22241 ft 405 kts 334°
2026-05-07 14:01 60.11391 29.95086 22708 ft 409 kts 334°
2026-05-07 14:01 60.14103 29.93302 23192 ft 412 kts 333°
2026-05-07 14:01 60.16836 29.91500 23638 ft 415 kts 333°
2026-05-07 14:02 60.19585 29.89687 24016 ft 418 kts 333°
2026-05-07 14:02 60.22358 29.87859 24390 ft 420 kts 333°
2026-05-07 14:02 60.25157 29.86083 24767 ft 427 kts 338°
2026-05-07 14:02 60.28157 29.85311 25118 ft 444 kts 352°
2026-05-07 14:03 60.31274 29.86061 25469 ft 461 kts
2026-05-07 14:03 60.34272 29.88404 25805 ft 476 kts 24°
2026-05-07 14:03 60.36979 29.92351 26160 ft 488 kts 41°
2026-05-07 14:03 60.39127 29.97717 26470 ft 495 kts 57°
2026-05-07 14:04 60.40915 30.03690 26791 ft 498 kts 58°
2026-05-07 14:04 60.42690 30.09721 27128 ft 501 kts 58°
2026-05-07 14:04 60.44495 30.15881 27477 ft 503 kts 58°
2026-05-07 14:04 60.46260 30.21919 27803 ft 506 kts 58°
2026-05-07 14:05 60.48055 30.28068 28126 ft 508 kts 58°
2026-05-07 14:05 60.49859 30.34248 28436 ft 511 kts 59°
2026-05-07 14:05 60.51672 30.40467 28743 ft 513 kts 59°
2026-05-07 14:05 60.53493 30.46718 29039 ft 515 kts 59°
2026-05-07 14:06 60.55317 30.52989 29301 ft 518 kts 58°
2026-05-07 14:06 60.57151 30.59308 29623 ft 519 kts 58°
2026-05-07 14:06 60.58985 30.65638 29901 ft 521 kts 58°
2026-05-07 14:06 60.60822 30.72004 30181 ft 523 kts 59°
2026-05-07 14:07 60.62661 30.78404 30477 ft 523 kts 59°
2026-05-07 14:07 60.64494 30.84804 30790 ft 523 kts 59°
2026-05-07 14:07 60.66325 30.91211 31093 ft 523 kts 59°
2026-05-07 14:07 60.68158 30.97632 31395 ft 523 kts 59°
2026-05-07 14:08 60.69987 31.04051 31701 ft 524 kts 59°
2026-05-07 14:08 60.71816 31.10495 32005 ft 524 kts 59°
2026-05-07 14:08 60.73635 31.16937 32345 ft 524 kts 59°
2026-05-07 14:08 60.75454 31.23401 32649 ft 524 kts 59°
2026-05-07 14:09 60.77273 31.29876 32961 ft 524 kts 59°
2026-05-07 14:09 60.79087 31.36344 33266 ft 524 kts 59°
2026-05-07 14:09 60.80901 31.42829 33582 ft 524 kts 59°
2026-05-07 14:09 60.82708 31.49314 33894 ft 524 kts 59°
2026-05-07 14:10 60.84511 31.55812 34182 ft 524 kts 59°
2026-05-07 14:10 60.86307 31.62306 34458 ft 524 kts 59°
2026-05-07 14:10 60.88105 31.68807 34748 ft 523 kts 59°
2026-05-07 14:10 60.89900 31.75299 34994 ft 522 kts 59°
2026-05-07 14:11 60.91690 31.81770 35057 ft 521 kts 59°
2026-05-07 14:11 60.95261 31.94781 35066 ft 522 kts 58°
2026-05-07 14:12 60.99575 32.06530 35071 ft 516 kts 41°
2026-05-07 14:12 61.04721 32.16824 35067 ft 515 kts 40°
2026-05-07 14:13 61.09866 32.27152 35088 ft 516 kts 40°
2026-05-07 14:13 61.14988 32.37512 35090 ft 515 kts 40°
2026-05-07 14:14 61.20108 32.47920 35076 ft 515 kts 40°
2026-05-07 14:14 61.25203 32.58360 35070 ft 515 kts 41°
2026-05-07 14:15 61.30306 32.68777 35062 ft 514 kts 40°
2026-05-07 14:15 61.35488 32.79013 35079 ft 513 kts 39°
2026-05-07 14:16 61.40683 32.89246 35071 ft 513 kts 39°
2026-05-07 14:16 61.45829 32.99570 35054 ft 513 kts 40°
2026-05-07 14:17 61.50486 33.10969 35053 ft 517 kts 49°
2026-05-07 14:17 61.54899 33.22866 35082 ft 517 kts 49°
2026-05-07 14:18 61.59318 33.34778 35074 ft 517 kts 49°
2026-05-07 14:18 61.63712 33.46716 35071 ft 517 kts 49°
2026-05-07 14:19 61.68094 33.58707 35069 ft 516 kts 50°
2026-05-07 14:19 61.72467 33.70708 35069 ft 516 kts 50°
2026-05-07 14:20 61.76828 33.82745 35091 ft 516 kts 50°
2026-05-07 14:20 61.81178 33.94843 35087 ft 516 kts 50°
2026-05-07 14:21 61.85498 34.06957 35079 ft 516 kts 50°
2026-05-07 14:21 61.90146 34.18298 35087 ft 509 kts 37°
2026-05-07 14:22 61.95557 34.27934 35049 ft 507 kts 35°
2026-05-07 14:22 62.00966 34.37583 35088 ft 507 kts 35°
2026-05-07 14:23 62.06364 34.47284 35085 ft 507 kts 35°
2026-05-07 14:23 62.11750 34.56994 35082 ft 507 kts 35°
2026-05-07 14:24 62.17131 34.66743 35075 ft 507 kts 35°
2026-05-07 14:24 62.22507 34.76540 35104 ft 507 kts 35°
2026-05-07 14:25 62.27868 34.86357 35098 ft 507 kts 36°
2026-05-07 14:25 62.33226 34.96214 35094 ft 506 kts 36°
2026-05-07 14:26 62.38569 35.06088 35075 ft 506 kts 36°
2026-05-07 14:26 62.43898 35.16030 35074 ft 507 kts 36°
2026-05-07 14:27 62.49192 35.26087 35097 ft 507 kts 36°
2026-05-07 14:27 62.54465 35.36198 35085 ft 506 kts 36°
2026-05-07 14:28 62.59744 35.46316 35082 ft 506 kts 36°
2026-05-07 14:28 62.65018 35.56459 35077 ft 506 kts 37°
2026-05-07 14:29 62.70283 35.66654 35107 ft 506 kts 37°
2026-05-07 14:29 62.75538 35.76892 35091 ft 506 kts 37°
2026-05-07 14:30 62.80755 35.87092 35081 ft 506 kts 37°
2026-05-07 14:30 62.85998 35.97390 35072 ft 506 kts 37°
2026-05-07 14:31 62.91245 36.07702 35066 ft 506 kts 37°
2026-05-07 14:31 62.96504 36.17975 35091 ft 506 kts 37°
2026-05-07 14:32 63.01755 36.28261 35087 ft 505 kts 37°
2026-05-07 14:32 63.06995 36.38586 35079 ft 505 kts 37°
2026-05-07 14:33 63.12219 36.48954 35078 ft 505 kts 37°
2026-05-07 14:33 63.17428 36.59359 35076 ft 505 kts 37°
2026-05-07 14:34 63.22446 36.70304 35073 ft 510 kts 46°
2026-05-07 14:34 63.26982 36.82426 35070 ft 510 kts 46°
2026-05-07 14:35 63.31507 36.94593 35068 ft 511 kts 46°
2026-05-07 14:35 63.36019 37.06802 35068 ft 511 kts 46°
2026-05-07 14:36 63.40518 37.19053 35097 ft 510 kts 46°
2026-05-07 14:36 63.45003 37.31330 35090 ft 510 kts 46°
2026-05-07 14:37 63.49457 37.43544 35096 ft 510 kts 46°
2026-05-07 14:37 63.56151 37.62039 35096 ft 510 kts 47°
2026-05-07 14:38 63.60594 37.74457 35116 ft 509 kts 47°
2026-05-07 14:38 63.65029 37.86868 34967 ft 509 kts 47°
2026-05-07 14:39 63.67232 37.93078 34736 ft 508 kts 47°
2026-05-07 14:39 63.69439 37.99310 34505 ft 508 kts 47°
2026-05-07 14:39 63.71644 38.05550 33939 ft 510 kts 47°
2026-05-07 14:39 63.73886 38.11893 32629 ft 522 kts 47°
2026-05-07 14:40 63.76161 38.18354 31494 ft 529 kts 47°
2026-05-07 14:40 63.78465 38.24930 30409 ft 537 kts 47°
2026-05-07 14:40 63.80774 38.31552 29673 ft 535 kts 47°
2026-05-07 14:40 63.83068 38.38161 28905 ft 531 kts 47°
2026-05-07 14:41 63.85338 38.44718 28144 ft 527 kts 47°
2026-05-07 14:41 63.87591 38.51244 27397 ft 523 kts 48°
2026-05-07 14:41 63.89822 38.57725 26663 ft 518 kts 48°
2026-05-07 14:41 63.92030 38.64135 25956 ft 514 kts 48°
2026-05-07 14:42 63.94216 38.70488 25341 ft 507 kts 48°
2026-05-07 14:42 63.96383 38.76809 24745 ft 502 kts 48°
2026-05-07 14:42 63.98513 38.83036 24180 ft 495 kts 48°
2026-05-07 14:42 64.00612 38.89197 23630 ft 490 kts 47°
2026-05-07 14:43 64.02680 38.95296 22975 ft 484 kts 47°
2026-05-07 14:43 64.04720 39.01353 22372 ft 477 kts 47°
2026-05-07 14:43 64.06727 39.07330 21797 ft 471 kts 48°
2026-05-07 14:43 64.08669 39.13316 21233 ft 466 kts 49°
2026-05-07 14:44 64.10539 39.19309 20644 ft 460 kts 51°
2026-05-07 14:44 64.12353 39.25261 20057 ft 452 kts 51°
2026-05-07 14:44 64.14103 39.31061 19277 ft 446 kts 51°
2026-05-07 14:44 64.15854 39.36859 18847 ft 438 kts 51°
2026-05-07 14:45 64.17585 39.42561 18309 ft 434 kts 50°
2026-05-07 14:45 64.19305 39.48192 17798 ft 428 kts 50°
2026-05-07 14:45 64.21006 39.53747 17287 ft 422 kts 50°
2026-05-07 14:45 64.22683 39.59227 16723 ft 417 kts 51°
2026-05-07 14:46 64.24335 39.64646 16276 ft 410 kts 51°
2026-05-07 14:46 64.25964 39.70005 15767 ft 406 kts 51°
2026-05-07 14:46 64.27564 39.75298 15333 ft 400 kts 52°
2026-05-07 14:46 64.29141 39.80535 14801 ft 396 kts 52°
2026-05-07 14:47 64.30701 39.85730 14335 ft 392 kts 52°
2026-05-07 14:47 64.32239 39.90860 13871 ft 386 kts 53°
2026-05-07 14:47 64.33760 39.95932 13335 ft 382 kts 53°
2026-05-07 14:47 64.34760 39.99263 12974 ft 379 kts 53°
2026-05-07 14:48 64.36254 40.04241 12413 ft 376 kts 53°
2026-05-07 14:48 64.37733 40.09186 11857 ft 372 kts 53°
2026-05-07 14:48 64.39196 40.14090 11345 ft 368 kts 53°
2026-05-07 14:48 64.40635 40.18936 10858 ft 362 kts 54°
2026-05-07 14:49 64.42026 40.23643 10709 ft 347 kts 54°
2026-05-07 14:49 64.43359 40.28156 10582 ft 333 kts 54°
2026-05-07 14:49 64.44645 40.32506 10454 ft 321 kts 54°
2026-05-07 14:49 64.45879 40.36691 10334 ft 309 kts 54°
2026-05-07 14:50 64.47066 40.40746 10144 ft 300 kts 54°
2026-05-07 14:50 64.48231 40.44728 9825 ft 297 kts 54°
2026-05-07 14:50 64.49392 40.48679 9443 ft 295 kts 54°
2026-05-07 14:50 64.50545 40.52606 9042 ft 294 kts 54°
2026-05-07 14:51 64.51690 40.56516 8644 ft 292 kts 54°
2026-05-07 14:51 64.52825 40.60399 8149 ft 288 kts 54°
2026-05-07 14:51 64.53941 40.64242 7492 ft 287 kts 54°
2026-05-07 14:51 64.55052 40.68074 6880 ft 284 kts 55°
2026-05-07 14:52 64.56131 40.71810 6689 ft 273 kts 55°
2026-05-07 14:52 64.57161 40.75383 6565 ft 258 kts 55°
2026-05-07 14:52 64.58123 40.78727 6426 ft 242 kts 54°
2026-05-07 14:52 64.59059 40.81967 6300 ft 239 kts 54°
2026-05-07 14:53 64.59985 40.85173 6165 ft 238 kts 54°
2026-05-07 14:53 64.60942 40.88293 6027 ft 235 kts 43°
2026-05-07 14:53 64.62282 40.90336 5902 ft 229 kts 15°
2026-05-07 14:53 64.63833 40.90762 5765 ft 224 kts 349°
2026-05-07 14:54 64.65278 40.89601 5631 ft 219 kts 324°
2026-05-07 14:54 64.66349 40.87155 5500 ft 216 kts 300°
2026-05-07 14:54 64.67145 40.84178 5367 ft 217 kts 303°
2026-05-07 14:54 64.68037 40.81330 5236 ft 217 kts 306°
2026-05-07 14:55 64.68886 40.78431 5101 ft 216 kts 294°
2026-05-07 14:55 64.69222 40.75050 4969 ft 215 kts 268°
2026-05-07 14:55 64.68844 40.71715 4851 ft 215 kts 240°
2026-05-07 14:55 64.67843 40.69138 4762 ft 217 kts 214°
2026-05-07 14:56 64.66435 40.67899 4766 ft 220 kts 187°
2026-05-07 14:56 64.64912 40.68271 4771 ft 224 kts 160°
2026-05-07 14:56 64.63606 40.70253 4636 ft 228 kts 132°
2026-05-07 14:56 64.62635 40.73153 4368 ft 226 kts 127°
2026-05-07 14:57 64.61705 40.76108 4099 ft 225 kts 127°
2026-05-07 14:57 64.60787 40.79044 3838 ft 224 kts 126°
2026-05-07 14:57 64.59880 40.81931 3578 ft 223 kts 127°
2026-05-07 14:57 64.58955 40.84841 3321 ft 231 kts 128°
2026-05-07 14:58 64.57904 40.88039 3104 ft 255 kts 128°
2026-05-07 14:58 64.56809 40.91329 2918 ft 258 kts 128°
2026-05-07 14:58 64.55708 40.94632 2705 ft 257 kts 128°
2026-05-07 14:58 64.54633 40.97851 2495 ft 248 kts 128°
2026-05-07 14:59 64.53590 41.00969 2274 ft 240 kts 128°
2026-05-07 14:59 64.52594 41.03950 2175 ft 228 kts 128°
2026-05-07 14:59 64.51804 41.07035 2070 ft 219 kts 107°
2026-05-07 14:59 64.51667 41.10492 2000 ft 215 kts 79°
2026-05-07 15:00 64.52195 41.13691 2005 ft 213 kts 54°
2026-05-07 15:00 64.53267 41.16015 2008 ft 212 kts 27°
2026-05-07 15:00 64.54663 41.17022 2008 ft 211 kts
2026-05-07 15:00 64.56105 41.16523 2009 ft 212 kts 336°
2026-05-07 15:01 64.57313 41.14597 2011 ft 212 kts 310°
2026-05-07 15:01 64.58012 41.11626 2009 ft 211 kts 280°
2026-05-07 15:01 64.58192 41.08261 2009 ft 212 kts 276°
2026-05-07 15:01 64.58358 41.04850 2009 ft 212 kts 276°
2026-05-07 15:02 64.58530 41.01442 2009 ft 212 kts 276°
2026-05-07 15:02 64.58704 40.98041 1997 ft 210 kts 276°
2026-05-07 15:02 64.58873 40.94733 1850 ft 201 kts 276°
2026-05-07 15:02 64.59031 40.91615 1624 ft 186 kts 276°
2026-05-07 15:03 64.59175 40.88766 1389 ft 167 kts 276°
2026-05-07 15:03 64.59303 40.86226 1145 ft 150 kts 276°
2026-05-07 15:03 64.59420 40.83891 931 ft 142 kts 277°
2026-05-07 15:03 64.59533 40.81626 734 ft 140 kts 277°
2026-05-07 15:04 64.59646 40.79390 549 ft 139 kts 277°
2026-05-07 15:04 64.59757 40.77154 375 ft 139 kts 277°
2026-05-07 15:04 64.59865 40.74913 173 ft 139 kts 277°
2026-05-07 15:04 64.59979 40.72686 43 ft 134 kts 277°
2026-05-07 15:05 64.60063 40.70993 38 ft 65 kts 276°
2026-05-07 15:05 64.60098 40.70424 35 ft 25 kts 283°
2026-05-07 15:05 64.60114 40.70018 35 ft 27 kts 274°
2026-05-07 15:05 64.60112 40.69731 36 ft 12 kts 234°
2026-05-07 15:06 64.60046 40.69688 40 ft 10 kts 185°
2026-05-07 15:06 64.59963 40.69672 40 ft 14 kts 184°
2026-05-07 15:06 64.59907 40.69783 40 ft 13 kts 97°
2026-05-07 15:06 64.59896 40.70035 40 ft 16 kts 95°
2026-05-07 15:07 64.59862 40.70161 40 ft 8 kts 179°
2026-05-07 15:07 64.59825 40.70216 40 ft 8 kts 103°
2026-05-07 15:07 64.59795 40.70345 40 ft 10 kts 136°
2026-05-07 15:07 64.59770 40.70506 40 ft 13 kts 96°
2026-05-07 15:08 64.59758 40.70743 40 ft 16 kts 98°
2026-05-07 15:08 64.59749 40.70942 40 ft 12 kts 95°
2026-05-07 15:08 64.59733 40.71119 40 ft 12 kts 96°
2026-05-07 15:08 64.59727 40.71279 40 ft 11 kts 95°
2026-05-07 15:09 64.59714 40.71394 40 ft 5 kts 140°
2026-05-07 15:09 64.59679 40.71392 40 ft 5 kts 189°
2026-05-07 15:09 64.59668 40.71389 40 ft 0 kts 187°